Tracking 19831 objects as of 23-Aug-2019
HD Live streaming from Space Station
objects crossing your sky now

GEOS 2

Track GEOS 2 now!
GEOS 2 is classified as:


NORAD ID: 10981
Int'l Code: 1978-071A
Perigee: 36,026.4 km
Apogee: 36,067.3 km
Inclination: 11.4 °
Period: 1,449.0 minutes
Semi major axis: 42417 km
RCS: 2.0304 m2 (large)
Launch date: July 14, 1978
Source: European Space Agency (ESA)
Launch site: AIR FORCE EASTERN TEST RANGE (AFETR)
aabbcc
Your satellite tracking list
Your tracking list is empty




NASA's NSSDC Master Catalog

Two Line Element Set (TLE):
1 10981U 78071A   19235.19652479 -.00000121  00000-0  00000+0 0  9999
2 10981  11.3896 313.7700 0004819 327.4583  42.2766  0.99375642149224
Source of the keplerian elements: AFSPC